{"data":{"norad_id":63010,"epoch":"2026-05-24T23:59:55.311072Z","epoch_age_seconds":78148,"freshness":"FRESH","line1":"1 63010U 25032F   26144.99994573  .00150583  00000+0  11557-2 0  9996","line2":"2 63010  42.9999  95.5257 0001958 273.5269  86.5375 15.70843892 74219","mean_motion":15.70843892,"eccentricity":0.0001958,"inclination_deg":42.9999,"raan_deg":95.5257,"arg_perigee_deg":273.5269,"mean_anomaly_deg":86.5375,"bstar":0.0011557,"rev_number":7421,"period_min":91.670471351968,"perigee_km":355.16529874756,"apogee_km":357.8025763067,"semimajor_km":6734.6209375271,"source":"CELESTRAK","updated_at":"2026-05-25T13:38:19.835973Z"}}